McCutcheon Field, NC

1:01 PM EST on February 23, 2017 (GMT -0500)
New River Marine Corps Air Station

Weather History for KNCA - May, 2015

Change the Weather History Date:

Thursday, May 7, 2015

  Actual Average Record
Temperature  
Mean Temperature 70 °F -  
Max Temperature 75 °F 77 °F 90 °F (2004)
Min Temperature 64 °F 55 °F 45 °F (2005)
Cooling Degree Days 4    
Growing Degree Days 20 (Base 50)    
Moisture  
Dew Point 61 °F    
Average Humidity 74    
Maximum Humidity 84    
Minimum Humidity 62    
Precipitation  
Precipitation 0.00 in - - ()
Sea Level Pressure  
Sea Level Pressure 30.07 in    
Wind  
Wind Speed 13 mph (NE)    
Max Wind Speed 21 mph    
Max Gust Speed 32 mph    
Visibility 10 miles    
Events      
Averages and records for this station are not official NWS values.
T = Trace of Precipitation, MM = Missing Value Source: NWS Daily Summary

Daily Weather History Graph

Daily Weather History Graph

Search for Another Location

Airport or City:

Trip Planner

Search our weather history database for the weather conditions in past years. The results will help you decide how hot, cold, wet, or windy it might be!

Date:

Astronomy

May. 07, 2015 Rise Set
Actual Time 6:13 AM EDT 7:59 PM EDT
Civil Twilight 5:46 AM EDT 8:26 PM EDT
Nautical Twilight 5:13 AM EDT 8:59 PM EDT
Astronomical Twilight 4:38 AM EDT 9:34 PM EDT
Moon 11:21 PM EDT (5/7) 9:03 AM EDT (5/7)
Length of Visible Light 14h 40m
Length of Day
13h 45m
Waning Gibbous, 87% of the Moon is Illuminated
May 7
Waning Gibbous
May 11
Last Quarter
May 18
New
May 25
First Quarter
Jun 2
Full

Hourly Weather History & Observations

Time (EDT) Temp. Dew Point Humidity Pressure Visibility Wind Dir Wind Speed Gust Speed Precip Events Conditions
12:56 AM 64.0 °F 59.0 °F 84% 30.14 in 10.0 mi NNE 8.1 mph - N/A   Clear
1:56 AM 64.9 °F 60.1 °F 84% 30.11 in 10.0 mi NNE 10.4 mph - N/A   Clear
2:56 AM 64.0 °F 59.0 °F 84% 30.08 in 10.0 mi North 9.2 mph - N/A   Clear
3:56 AM 64.9 °F 59.0 °F 81% 30.07 in 10.0 mi NNE 11.5 mph - N/A   Clear
4:56 AM 64.0 °F 59.0 °F 84% 30.07 in 10.0 mi NNE 10.4 mph - N/A   Clear
5:56 AM 64.0 °F 59.0 °F 84% 30.06 in 10.0 mi NNE 13.8 mph - N/A   Clear
6:56 AM 64.0 °F 59.0 °F 84% 30.07 in 10.0 mi NNE 12.7 mph - N/A   Partly Cloudy
7:56 AM 66.0 °F 59.0 °F 78% 30.08 in 7.0 mi NNE 9.2 mph - N/A   Mostly Cloudy
8:56 AM 70.0 °F 59.0 °F 68% 30.09 in 10.0 mi NE 15.0 mph - N/A   Overcast
9:56 AM 73.0 °F 60.1 °F 64% 30.09 in 10.0 mi NNE 11.5 mph 18.4 mph N/A   Mostly Cloudy
10:56 AM 73.9 °F 61.0 °F 64% 30.10 in 10.0 mi NE 15.0 mph 21.9 mph N/A   Mostly Cloudy
11:56 AM 73.9 °F 62.1 °F 66% 30.10 in 10.0 mi ENE 17.3 mph 29.9 mph N/A   Overcast
12:56 PM 73.0 °F 63.0 °F 71% 30.10 in 10.0 mi NE 19.6 mph 28.8 mph 0.00 in   Overcast
1:56 PM 73.0 °F 64.9 °F 76% 30.08 in 10.0 mi NE 11.5 mph - 0.00 in   Overcast
2:10 PM 73.9 °F 64.9 °F 73% 30.07 in 10.0 mi ENE 17.3 mph 26.5 mph N/A   Overcast
2:34 PM 73.9 °F 63.0 °F 68% 30.06 in 10.0 mi ENE 20.7 mph 32.2 mph 0.00 in   Overcast
2:56 PM 75.0 °F 63.0 °F 66% 30.06 in 10.0 mi ENE 18.4 mph 26.5 mph 0.00 in   Overcast
3:56 PM 75.9 °F 62.1 °F 62% 30.04 in 10.0 mi ENE 18.4 mph 28.8 mph N/A   Overcast
4:56 PM 75.0 °F 61.0 °F 62% 30.04 in 10.0 mi NE 17.3 mph 27.6 mph N/A   Partly Cloudy
6:56 PM 73.0 °F 62.1 °F 68% 30.04 in 10.0 mi ENE 19.6 mph 31.1 mph N/A   Partly Cloudy
7:56 PM 72.0 °F 62.1 °F 71% 30.04 in 10.0 mi NE 13.8 mph 26.5 mph N/A   Clear
8:56 PM 70.0 °F 62.1 °F 76% 30.03 in 10.0 mi NE 16.1 mph - N/A   Clear
9:56 PM 70.0 °F 62.1 °F 76% 30.04 in 10.0 mi NE 13.8 mph - N/A   Partly Cloudy
10:56 PM 69.1 °F 62.1 °F 78% 30.04 in 10.0 mi NNE 17.3 mph - N/A   Scattered Clouds
11:40 PM 68.0 °F 61.0 °F 78% 30.01 in 10.0 mi NNE 12.7 mph - N/A   Mostly Cloudy
11:56 PM 68.0 °F 61.0 °F 78% 30.02 in 10.0 mi NE 13.8 mph - N/A   Mostly Cloudy